EW3836 Weather Reports


Display with metric or nautical units.
time (UTC)temp
F
wind
direction
speed
MPH
gust
MPH
rain 1hr
in
rain 24hr
in
rain mn
in
humidity
%
barometer
mb
20260905021500 56 122 0.0 0.0 0.00 0.11 0.00 55 1012.8
20260905020100 57 123 0.0 0.0 0.00 0.11 0.00 54 1012.8
20260905014607 57 146 0.0 0.0 0.00 0.12 0.00 53 1012.8
20260905013117 57 141 0.0 0.0 0.00 0.12 0.00 53 1012.7
20260905011657 58 156 0.0 0.0 0.00 0.12 0.00 51 1012.7
20260905010100 60 355 0.0 0.0 0.00 0.12 0.00 52 1012.5
20260905004637 61 59 0.0 0.0 0.00 0.12 0.00 49 1012.5
20260905003056 62 35 0.0 0.0 0.00 0.12 0.00 49 1012.2
20260905001605 64 265 0.0 0.0 0.00 0.12 0.00 43 1012.1
20260905000056 64 24 0.0 0.0 0.00 0.12 0.00 45 1012.2
20260904234551 62 328 0.0 0.0 0.00 0.12 0.00 51 1012.1
20260904233052 62 355 0.0 0.0 0.00 0.12 0.00 51 1012.2
20260904231550 62 98 0.0 0.0 0.00 0.12 0.00 51 1012.1
20260904230049 62 60 0.0 0.0 0.00 0.12 0.00 49 1012.2
20260904224548 62 31 0.0 0.0 0.00 0.12 0.00 48 1012.2
20260904223047 62 137 0.0 0.0 0.00 0.12 0.00 49 1012.2
20260904221550 64 348 0.0 0.0 0.00 0.12 0.00 49 1012.1
20260904220042 62 92 0.0 0.0 0.00 0.12 0.00 52 1012.2
20260904214542 62 287 0.0 0.0 0.00 0.12 0.00 46 1012.4
20260904213042 62 65 0.0 0.0 0.00 0.12 0.00 51 1012.2
20260904211541 60 265 0.0 0.0 0.00 0.12 0.00 43 1012.3
20260904210035 60 242 0.0 0.0 0.00 0.12 0.00 41 1012.3
20260904204533 61 87 0.0 0.0 0.00 0.12 0.00 42 1012.3
20260904203033 61 157 0.0 0.0 0.00 0.12 0.00 47 1012.4
20260904201528 60 103 0.0 0.0 0.00 0.12 0.00 48 1012.4
20260904200025 59 255 0.0 0.0 0.00 0.12 0.00 48 1012.5
20260904194524 60 94 0.0 0.0 0.00 0.12 0.00 51 1012.5
20260904193021 58 153 0.0 0.0 0.00 0.12 0.00 56 1012.6
20260904191518 57 66 0.0 0.0 0.00 0.12 0.00 54 1012.6
20260904190015 58 133 0.0 0.0 0.00 0.12 0.00 54 1012.6
20260904184521 60 15 0.0 0.0 0.00 0.12 0.00 57 1012.6
20260904183013 60 55 0.0 0.0 0.00 0.12 0.00 54 1012.6
20260904181519 56 300 0.0 0.0 0.00 0.12 0.00 61 1012.7
20260904180020 60 313 0.0 0.0 0.00 0.12 0.00 57 1012.7
20260904174505 58 312 0.0 0.0 0.00 0.12 0.00 56 1012.6
20260904173000 56 217 0.0 0.0 0.00 0.12 0.00 58 1012.5
20260904171619 56 136 0.0 0.0 0.00 0.12 0.00 60 1012.4
20260904170055 55 76 0.0 0.0 0.00 0.12 0.00 62 1012.4
20260904164609 54 100 0.0 0.0 0.00 0.12 0.00 65 1012.3
20260904163049 53 119 0.0 0.0 0.00 0.12 0.00 66 1012.1
20260904161554 52 121 0.0 0.0 0.00 0.12 0.00 68 1012.0
20260904160041 51 113 0.0 0.0 0.00 0.12 0.00 71 1012.0
20260904154543 50 163 0.0 0.0 0.00 0.12 0.00 73 1012.0
20260904153040 49 150 0.0 0.0 0.00 0.12 0.00 75 1012.1
20260904151534 48 128 0.0 0.0 0.00 0.12 0.00 76 1012.0
20260904150029 47 158 0.0 0.0 0.00 0.12 0.00 78 1012.0
20260904144525 46 130 0.0 0.0 0.00 0.12 0.00 79 1011.8
20260904143023 45 138 0.0 0.0 0.00 0.12 0.00 81 1011.7
20260904141520 44 150 0.0 0.0 0.00 0.12 0.00 83 1011.4
20260904140017 43 162 0.0 0.0 0.00 0.12 0.00 84 1011.3
20260904134518 43 134 0.0 0.0 0.00 0.12 0.00 84 1011.2
20260904133014 43 149 0.0 0.0 0.00 0.12 0.00 85 1011.1
20260904131510 43 150 0.0 0.0 0.00 0.12 0.00 84 1010.8
20260904130010 44 143 0.0 0.0 0.00 0.12 0.00 83 1010.8
20260904124508 43 149 0.0 0.0 0.00 0.12 0.00 83 1010.6
20260904123006 43 157 0.0 0.0 0.00 0.12 0.00 84 1010.6
20260904121505 43 153 0.0 0.0 0.00 0.12 0.00 84 1010.4
20260904120001 44 149 0.0 0.0 0.00 0.12 0.00 84 1010.3
20260904114605 44 129 0.0 0.0 0.00 0.13 0.00 84 1010.1
20260904113059 44 133 0.0 0.0 0.00 0.13 0.00 83 1009.9
20260904111558 44 121 0.0 0.0 0.00 0.13 0.00 83 1009.8
20260904110055 44 153 0.0 0.0 0.00 0.13 0.00 85 1009.7
20260904104610 44 123 0.0 0.0 0.00 0.16 0.00 85 1009.7
20260904103058 44 152 0.0 0.0 0.00 0.16 0.00 86 1009.7
20260904101551 44 110 0.0 0.0 0.00 0.16 0.00 86 1009.1
20260904100105 44 103 0.0 0.0 0.00 0.16 0.00 86 1009.1
20260904094557 44 129 0.0 0.0 0.00 0.18 0.00 86 1009.2
20260904093043 44 112 0.0 0.0 0.00 0.18 0.00 86 1008.8
20260904091542 45 111 0.0 0.0 0.00 0.18 0.00 85 1008.7
20260904090038 45 156 0.0 0.0 0.00 0.18 0.00 85 1008.8
20260904084537 45 135 0.0 0.0 0.00 0.18 0.00 85 1008.8
20260904083036 44 121 0.0 0.0 0.00 0.18 0.00 87 1008.5
20260904081534 44 122 0.0 0.0 0.00 0.18 0.00 86 1008.4
20260904080032 45 128 0.0 0.0 0.00 0.18 0.00 87 1008.4
20260904074532 44 143 0.0 0.0 0.00 0.22 0.00 88 1008.5
20260904073034 44 120 0.0 0.0 0.00 0.22 0.00 87 1008.4
20260904071525 45 107 0.0 0.0 0.00 0.22 0.00 87 1008.3
20260904070037 45 112 0.0 0.0 0.00 0.22 0.00 86 1008.1
20260904064521 45 120 0.0 0.0 0.00 0.32 0.22 87 1008.2
20260904063021 45 148 0.0 0.0 0.00 0.32 0.22 87 1008.1
20260904061527 45 122 0.0 0.0 0.00 0.32 0.22 87 1008.2
20260904060024 45 120 0.0 0.0 0.00 0.32 0.22 87 1008.2
20260904054523 45 116 0.0 0.0 0.00 0.34 0.22 86 1008.1
20260904053033 45 111 0.0 0.0 0.00 0.34 0.22 87 1008.2
20260904051518 45 175 0.0 0.0 0.00 0.34 0.22 87 1008.2
20260904050029 45 134 0.0 0.0 0.01 0.34 0.22 87 1008.3
20260904044520 45 122 0.0 0.0 0.02 0.34 0.22 87 1008.1
20260904043015 45 109 0.0 0.0 0.03 0.34 0.22 86 1007.9
20260904041515 45 136 0.0 0.0 0.04 0.34 0.22 86 1008.2
20260904040013 45 159 0.0 0.0 0.04 0.33 0.21 88 1008.1
20260904034513 45 101 0.0 0.0 0.04 0.32 0.20 89 1008.3
20260904033011 45 75 0.0 0.0 0.05 0.31 0.19 90 1008.3
20260904031510 45 160 0.0 0.0 0.06 0.30 0.18 90 1008.2
20260904030008 46 127 0.0 0.0 0.06 0.28 0.17 89 1008.7
20260904024507 47 146 0.0 0.0 0.06 0.28 0.16 89 1008.5
20260904023005 47 135 0.0 0.0 0.04 0.26 0.14 87 1008.3